Regional Weather Roundup
Issued by NWS

Home | Current Version | Previous Version | Text Only | Print | Product List | Glossary Off
Versions: 1 2 3 4 5 6 7 8 9 10 11 12 13 14 15 16 17 18 19 20 21 22 23 24 25 26 27

000
ASUS45 KPSR 291710
RWRAZ

ARIZONA HOURLY REGIONAL WEATHER ROUNDUP
NATIONAL WEATHER SERVICE PHOENIX AZ
1000 AM MST SAT APR 29 2017

NOTE: FAIR INDICATES FEW OR NO CLOUDS BELOW 12,000 FEET WITH NO
SIGNIFICANT WEATHER AND/OR OBSTRUCTIONS TO VISIBILITY.

AZZ001>003-036-291800-
NORTHWEST ARIZONA

CITY           SKY/WX    TMP DP  RH WIND       PRES   REMARKS
BULLHEAD CITY  SUNNY     70  23  17 N22       30.05R
KINGMAN        SUNNY     59  32  36 N12G20    30.08R
$$

AZZ004>008-015-016-018-291800-
NORTH CENTRAL ARIZONA

CITY           SKY/WX    TMP DP  RH WIND       PRES   REMARKS
GRAND CANYON   MOSUNNY   44  19  36 MISG      30.04R
WILLIAMS       MOSUNNY   45  19  36 NW18G26   30.04S
PRESCOTT       MOSUNNY   52  20  28 N15G25    30.03S
FLAGSTAFF      SUNNY     44  13  28 N17G26    30.00R
PAYSON         MOSUNNY   52  16  24 N13G22    30.01R
PAGE           MOSUNNY   55  20  25 NW9       30.00R
$$

AZZ009>014-017-291800-
NORTHEAST ARIZONA

CITY           SKY/WX    TMP DP  RH WIND       PRES   REMARKS
WINSLOW        MOSUNNY   53  22  29 NW20G26   29.99R
SAINT JOHNS    SUNNY     45  27  49 NW16      29.95S
WINDOW ROCK    LGT SNOW  36  27  69 N14       29.95R WCI  27
SHOW LOW       MOSUNNY   43  18  36 N16G22    29.99R
$$

AZZ540-542>544-546-548-291800-
GREATER PHOENIX AREA

CITY           SKY/WX    TMP DP  RH WIND       PRES   REMARKS
PHOENIX        MOSUNNY   69  19  15 VRB5      29.93R
BUCKEYE        SUNNY     70  16  12 NW5       29.98R
GLENDALE       MOSUNNY   72  21  15 NW7       29.97R
LUKE AFB       SUNNY     70  21  15 NW5       29.95R
DEER VALLEY    SUNNY     67  18  15 CALM      29.94S
SCOTTSDALE     SUNNY     69  18  14 N10       29.95S
MESA-FALCON    SUNNY    N/A N/A N/A NW16      29.95R
MESA-GATEWAY   SUNNY     66  19  16 NE10      29.95R
CHANDLER       SUNNY     68  18  14 N9        29.95R
$$

AZZ539-553-291800-
SOUTHWEST MARICOPA COUNTY AND PINAL COUNTY

CITY           SKY/WX    TMP DP  RH WIND       PRES   REMARKS
CASA GRANDE    SUNNY     67  19  16 NW10G20   29.97R
GILA BEND      SUNNY     70  16  12 NW10      29.97R
$$

AZZ503-504-507>509-291800-
SOUTHEAST ARIZONA

CITY           SKY/WX    TMP DP  RH WIND       PRES   REMARKS
TUCSON         SUNNY     65  13  13 W8G22     29.97R
DAVIS-MONTHAN  SUNNY     63  13  14 NW13      29.95R
RYAN FIELD     SUNNY     64  16  15 W10       29.98R
NOGALES        SUNNY     61   8  12 NW20G26   29.96S
SIERRA VISTA   SUNNY     57   3  11 NW16G26   29.98R
DOUGLAS        SUNNY     61   5  10 W16G23    29.95R
SAFFORD        SUNNY     62  16  16 NW17      29.90S
$$

AZZ532-291800-
SOUTHWEST ARIZONA

CITY           SKY/WX    TMP DP  RH WIND       PRES   REMARKS
YUMA           SUNNY     75  22  13 N17G26    30.00R
$$

CAZ041-043-047-048-061-525>527-560>570-291800-
SOUTHERN CALIFORNIA

CITY           SKY/WX    TMP DP  RH WIND       PRES   REMARKS
DOWNTOWN L.A.  SUNNY     77  19  11 CALM      29.99S
L.A. AIRPORT   SUNNY     76  16  10 VRB5      30.01R
SAN DIEGO      SUNNY     75  28  17 VRB3      29.98R
BURBANK        SUNNY     74   7   7 E12G17    30.02R
ONTARIO        SUNNY     71  13  10 NE30G45   30.02R
RIVERSIDE      SUNNY     72  18  13 NE18G30   30.01F
PALM SPRINGS   SUNNY     76  16  10 N13G24    30.08S
EL CENTRO NAS  SUNNY     76  19  11 N16       30.04S
IMPERIAL       SUNNY     76  27  16 N13       30.02R
BLYTHE         MOSUNNY   74  21  13 N21G31    30.03S
NEEDLES        SUNNY     73  22  14 NE25G37   30.05R
$$

NVZ020-UTZ003-291800-
SOUTHERN NEVADA-UTAH

CITY           SKY/WX    TMP DP  RH WIND       PRES   REMARKS
LAS VEGAS      MOSUNNY   66  16  14 N12G21    30.11R
SALT LAKE CITY MOSUNNY   49  22  34 CALM      30.18S
$$

NMZ009-TXZ055-291800-
NEW MEXICO-WEST TEXAS

CITY           SKY/WX    TMP DP  RH WIND       PRES   REMARKS
ALBUQUERQUE    LGT SNOW  35  32  88 N7        29.96R VSB 1   WCI  29
EL PASO        PTSUNNY   48  38  68 S15G23    29.87S
$$


........................KEY........................
SKY/WX - SKY CONDITION/WEATHER
TMP    - TEMPERATURE IN FAHRENHEIT
DP     - DEW POINT IN FAHRENHEIT
RH     - RELATIVE HUMIDITY IN PERCENT
WIND   - DIRECTION AND SPEED IN MILES PER HOUR (MPH)
VRB    - VARIABLE WIND DIRECTION
PRES   - MEAN SEA LEVEL PRESSURE IN INCHES OF MERCURY
         F - FALLING PRESSURE   R - RISING PRESSURE
         S - STEADY PRESSURE
VSB    - VISIBILITY IN MILES
HX     - HEAT INDEX IN FAHRENHEIT
WCI    - WIND CHILL INDEX IN FAHRENHEIT
TC     - TEMPERATURE IN CELSIUS WHICH IS ALSO KNOWN AS
         TEMPERATURE IN CENTIGRADE
AFB    - AIR FORCE BASE
         LUKE AFB IS LUKE AIR FORCE BASE
         DAVIS-MONTHAN IS DAVIS-MONTHAN AIR FORCE BASE
NAS    - NAVAL AIR STATION
         EL CENTRO NAS IS EL CENTRO NAVAL AIR STATION
N/A    - NOT AVAILABLE





USA.gov is the U.S. government's official web portal to all federal, state and local government web resources and services.